Location: Guadanolo
(41.9167°N, 12.9333°E)
Time: 10:13:03
(UTC+00:00)

Daily predictions for brighter satellites

Satellite Brightness Start Highest point End
(mag) Time Altitude Azimuth Time Altitude Azimuth Time Altitude Azimuth
Cosmos 2074 Rocket 4.4 17:33:02 10° N 17:38:58 43° ENE 17:44:50 10° SSE
COSMO-SKYMED 1 3.4 17:34:54 10° N 17:39:12 59° WNW 17:43:27 10° SSW
Ariane Rocket 3.3 17:35:11 10° SE 17:39:58 46° ENE 17:44:49 10° N
Cosmos 1743 2.7 17:36:17 10° S 17:40:07 88° E 17:44:00 10° N
Sich 1 Rocket 4.2 17:35:59 10° SSW 17:40:20 63° W 17:44:42 10° N
Cosmos 1975 2.8 17:37:53 10° S 17:41:48 62° E 17:45:46 10° NNE
Cosmos 2360 Rocket 2.2 17:38:07 10° NNW 17:43:48 75° ENE 17:49:27 10° SSE
Lacrosse 4 Rocket 1.9 17:40:03 10° NW 17:44:04 62° WSW 17:48:03 10° SSE
Cosmos 1300 Rocket 3.7 17:41:11 10° SSE 17:45:21 50° E 17:49:32 10° NNE
Okean 2 3.3 17:41:39 10° N 17:45:45 83° E 17:49:52 10° S
NOSS 3-3 (A) 3.9 17:49:48 10° SSW 17:55:39 78° ESE 18:02:10 10° NE
NOSS 3-3 (C) 3.9 17:49:55 10° SSW 17:55:45 78° ESE 18:02:16 10° NE
FREGAT/IRIS 3.7 17:53:35 10° SE 17:55:51 22° ENE 17:58:08 10° NNE
Meteor 2-9 Rocket 4.3 17:51:23 10° S 17:57:04 58° E 18:02:38 10° NNE
BREEZE M DEB (TANK) 3.2 17:56:14 10° WNW 17:58:02 24° N 18:00:31 10° NE
Cosmos 1842 3.4 17:55:29 10° N 17:59:22 52° E 18:03:13 10° SSE
Cosmos 1461 3.1 17:57:00 10° S 18:00:51 44° ESE 18:04:39 10° NE
Cosmos 1833 4.4 17:55:15 10° SSW 18:00:58 78° WNW 18:06:41 10° NNE
SL-16 R/B 4.0 17:56:12 10° NW 18:01:14 34° WSW 18:06:14 10° SSW
HJ-1C 3.5 18:01:06 10° SSE 18:04:23 53° ENE 18:07:41 10° N
SL-8 R/B 3.7 18:01:08 10° WSW 18:05:55 89° NW 18:10:45 10° ENE
Cosmos 2297 Rocket 4.0 18:07:24 11° E 18:07:24 11° E 18:07:59 10° ENE
CZ-4 R/B 3.6 18:06:44 10° SSW 18:10:02 27° W 18:13:25 10° NW
MONITOR-E 3.8 18:09:15 10° SSE 18:12:01 64° ENE 18:14:48 10° N
ARGOS 4.2 18:08:21 13° ESE 18:12:04 26° ENE 18:16:25 10° N
Cosmos 2184 Rocket 4.0 18:08:36 10° N 18:14:51 79° E 18:21:07 10° S
COSMOS 2455 2.8 18:09:38 10° NNW 18:15:42 78° ENE 18:21:42 10° SSE
Resurs 01 Rocket 3.3 18:18:23 14° ENE 18:19:20 15° ENE 18:21:54 10° NNE
BREEZE-M DEB (TANK) 3.0 18:19:32 10° WNW 18:21:33 33° SW 18:23:11 16° SSE
Cosmos 2333 Rocket 2.4 18:16:11 10° NNW 18:21:46 52° ENE 18:26:24 15° SE
USA 186 2.4 18:20:12 17° SE 18:22:21 39° ENE 18:25:34 10° N
Okean 1 Rocket 3.0 18:20:57 10° S 18:25:12 57° E 18:29:28 10° NNE
H-2A R/B 2.6 18:26:02 19° ESE 18:28:54 34° ENE 18:33:23 10° N
GP-B 3.2 18:26:09 10° N 18:30:36 80° W 18:35:01 10° S
ADEOS Rocket 3.9 18:24:45 10° NNE 18:31:35 41° E 18:38:45 10° SSE
ATLAS 2AS CENTAUR R/B 3.0 18:24:47 10° NNW 18:32:24 60° NE 18:37:26 20° SE
Cosmos 1544 2.9 18:29:40 10° S 18:33:15 81° E 18:36:52 10° N
Cosmos 1441 Rocket 3.1 18:32:42 10° S 18:36:33 84° E 18:40:22 10° N
Cosmos 2251 Rocket 3.8 18:31:27 10° NNW 18:36:49 71° WSW 18:42:08 10° S
Cosmos 2237 Rocket 3.2 18:31:58 10° N 18:36:53 29° NE 18:39:01 23° E
GEOS 3 Rocket 4.1 18:32:52 10° SSE 18:37:53 57° WSW 18:42:56 10° NW
SAR-Lupe-2 3.9 18:35:52 10° N 18:39:26 67° WNW 18:42:58 10° SSW
Cosmos 1610 Rocket 4.5 18:35:06 10° N 18:41:26 85° E 18:47:47 10° S
MOS 1 4.4 18:37:35 10° S 18:43:17 78° WSW 18:49:00 10° NNW
Cosmos 1980 4.4 18:40:26 10° N 18:45:35 35° ENE 18:47:30 28° E
SJ-6B 2.8 18:42:50 20° SSE 18:45:39 72° ENE 18:49:46 10° N
Aureole 1 Rocket 3.2 18:40:36 10° NNW 18:45:58 79° WSW 18:48:58 18° SSE
Nadezhda 1 Rocket 4.0 18:40:36 10° S 18:46:40 81° W 18:52:46 10° N
Cosmos 1707 2.6 18:54:52 10° N 18:58:49 82° E 19:00:07 40° SSE
CZ-2C R/B 4.1 18:55:04 10° N 18:59:29 61° WNW 19:03:51 10° SSW
ASTEX 1 3.6 18:54:52 10° N 18:59:45 73° W 19:04:36 10° SSW
Okean 1-7 Rocket 3.8 18:56:00 10° N 19:00:17 47° ENE 19:00:41 45° E
Cosmos 1295 Rocket 4.4 18:56:09 10° N 19:02:22 83° E 19:07:25 16° S
Cosmos 1892 Rocket 3.8 18:58:18 10° N 19:02:38 48° ENE 19:02:54 47° E
SL-16 R/B 3.7 19:00:56 10° N 19:05:03 20° NE 19:05:35 20° ENE
CZ-2C R/B 3.4 19:04:05 40° E 19:05:04 45° ENE 19:10:11 10° N
Cosmos 389 Rocket 3.0 19:01:50 10° N 19:04:27 43° NNE 19:04:27 43° NNE
NOSS 0 Rocket 3.9 19:01:21 10° NNW 19:07:33 70° ENE 19:10:04 38° SE
COSMOS 2428 3.1 19:07:02 10° NNW 19:12:39 63° WSW 19:16:11 23° S
Meteor 1-4 Rocket 3.7 19:12:13 10° N 19:14:26 33° NNE 19:14:26 33° NNE
Cosmos 2219 Rocket 2.6 19:11:37 10° NNW 19:17:07 59° WSW 19:20:21 24° S
Meteor 1-15 Rocket 4.2 19:13:40 10° S 19:19:23 89° W 19:25:15 10° N
Cosmos 2341 Rocket 3.9 19:13:56 10° N 19:20:13 89° W 19:23:53 27° S
Cosmos 2181 Rocket 3.9 19:16:40 14° S 19:22:03 76° E 19:28:21 10° N
Cosmos 2056 Rocket 3.4 19:19:22 10° S 19:24:45 72° ESE 19:30:10 10° NNE
SL-08 RB Rocket 3.7 19:31:34 75° S 19:31:58 84° WSW 19:36:40 10° NNW
Cosmos 407 Rocket 3.3 19:29:48 10° NNW 19:34:57 88° ENE 19:35:14 80° SSE
Cosmos 2219 3.4 19:29:25 10° SSW 19:35:09 74° WNW 19:40:56 10° NNE
CZ-2C R/B 4.1 19:30:46 10° NNE 19:33:16 24° NE 19:33:16 24° NE
Cosmos 1624 Rocket 3.9 19:32:09 10° SSW 19:37:21 86° WNW 19:42:35 10° NNE
Cosmos 2227 Rocket 2.3 19:38:55 58° ENE 19:38:55 58° ENE 19:43:36 10° NNE
NOSS 3-4 (A) 3.8 19:32:34 10° NW 19:39:42 83° SW 19:42:04 49° SSE
NOSS 3-4 (C) 3.8 19:32:40 10° NW 19:39:47 83° SW 19:42:08 49° SSE
Cosmos 2218 Rocket 3.9 19:37:00 10° N 19:43:26 83° E 19:44:33 63° SSE
Cosmos 614 Rocket 3.9 19:38:28 10° NNW 19:43:43 82° WSW 19:43:50 81° SW
Cosmos 1455 Rocket 3.6 19:44:43 53° NNW 19:44:43 53° NNW 19:48:14 10° N
FALCON 9 R/B 4.4 18:59:58 10° W 19:47:14 66° SSW 19:52:55 42° SE
Cosmos 2297 Rocket 2.0 19:48:53 80° SSW 19:49:14 89° ESE 19:54:56 10° NNE
Cosmos 2366 rocket 3.9 19:44:48 10° N 19:51:13 88° E 19:52:02 70° SSE
ARGOS 4.1 19:49:52 29° SSW 19:52:03 44° W 19:57:11 10° NNW
MetOp-B 4.4 19:54:34 59° NNE 19:54:34 59° NNE 19:59:02 10° N
Cosmos 1954 Rocket 4.5 19:50:02 10° NNW 19:54:07 51° NNE 19:54:07 51° NNE
Resurs 01 Rocket 2.4 19:55:57 50° WNW 19:55:57 50° WNW 19:59:43 10° NNW
Spot 2 Rocket 3.9 19:57:18 56° N 19:57:18 56° N 20:01:18 10° NNW
Cosmos 864 Rocket 4.4 19:51:34 10° N 19:57:49 86° W 19:58:18 77° SSW
Meteor 1-24 Rocket 3.8 19:52:41 10° N 19:57:50 69° NNE 19:57:50 69° NNE
SL-8 Rocket 4.4 19:57:05 10° NNW 20:03:09 58° W 20:04:45 45° SW
Cosmos 2333 Rocket 4.2 20:01:17 10° NW 20:05:38 23° WSW 20:08:27 16° SW
Cosmos 1140 Rocket 4.0 20:02:36 10° NNW 20:06:49 56° NW 20:06:49 56° NW
H-2A R/B 3.7 20:06:40 22° SW 20:08:22 27° W 20:12:34 10° NW
Meteor 2-5 Rocket 4.0 20:02:42 10° NNW 20:08:27 63° W 20:08:43 62° WSW
Terra 4.2 20:18:42 15° NNE 20:18:42 15° NNE 20:19:38 10° N
Cosmos 2237 Rocket 3.0 20:15:43 10° NW 20:20:51 44° W 20:20:51 44° W
ATLAS 2AS CENTAUR R/B 4.1 20:16:33 10° NW 20:22:53 31° WSW 20:24:53 27° SW
SL-16 R/B 3.5 20:44:04 10° NNW 20:47:27 37° NW 20:47:27 37° NW
Cosmos 2227 Rocket 4.5 21:20:30 17° WNW 21:22:33 20° NW 21:26:40 10° N
CZ-4C R/B 4.5 23:09:45 10° NNW 23:12:50 27° NNW 23:12:50 27° NNW
